Regional Weather Roundup
Issued by NWS

Home | Current Version | Previous Version | Graphics & Text | Print | Product List | Glossary On
Versions: 1 2 3 4 5 6 7 8 9 10 11 12 13 14 15 16 17 18 19 20 21 22 23 24 25 26 27 28 29 30 31 32 33 34 35 36 37 38 39 40 41 42 43 44 45 46 47 48 49 50
000
ASUS43 KLSX 200207
RWRMO

WEATHER SUMMARY FOR MISSOURI
NATIONAL WEATHER SERVICE SPRINGFIELD MO
900 PM CDT THU APR 19 2018

NOTE: "FAIR" INDICATES FEW OR NO CLOUDS BELOW 12,000 FEET WITH NO
       SIGNIFICANT WEATHER AND/OR OBSTRUCTIONS TO VISIBILITY.
       CURRENT SKY AND/OR WEATHER CONDITIONS ARE NOT AVAILABLE FOR
       CHILLICOTHE AND FARMINGTON.

MOZ001>031-035>038-043-044-053-054-200300-
...NORTHERN AND WESTERN MISSOURI...

CITY           SKY/WX    TMP DP  RH WIND       PRES   REMARKS
KANSAS CTY INT PTCLDY    51  29  42 E9        30.37R
KANSAS C DTWN  CLEAR     54  29  38 E6        30.37R
LEE`S SUMMIT   CLEAR     49  30  48 E6        30.38R
ST JOSEPH      CLOUDY    51  30  44 E6        30.37S
CHILLICOTHE      N/A     45  29  53 CALM      30.40S
KIRKSVILLE     CLEAR     46  28  49 NE3       30.42R

$$
MOZ066>068-077>081-088>096-101>105-200300-
...SOUTHWEST MISSOURI...

CITY           SKY/WX    TMP DP  RH WIND       PRES   REMARKS
SPRINGFIELD    PTCLDY    49  31  49 E8        30.35R
JOPLIN         PTCLDY    50  32  50 NE3       30.35R
BRANSON        PTCLDY    48  30  49 E6        30.35S

$$
MOZ032>034-039>042-045>050-055>058-069>072-200300-
...CENTRAL MISSOURI...

CITY           SKY/WX    TMP DP  RH WIND       PRES   REMARKS
COLUMBIA       CLEAR     49  29  46 NE6       30.40R
JEFFERSON CITY CLEAR     52  29  41 NE7       30.40R
ROLLA          CLEAR     46  29  51 E7        30.39R
SEDALIA        CLEAR     50  30  46 E6        30.39S
WHITEMAN AFB   PTCLDY    47  29  49 CALM      30.34S
WARRENSBURG    CLEAR     46  30  53 E5        30.38S
OSAGE BEACH    CLEAR     45  31  58 NE3       30.39R

$$
MOZ051-052-059>065-200300-
...EAST CENTRAL MISSOURI...

CITY           SKY/WX    TMP DP  RH WIND       PRES   REMARKS
ST LOUIS INTL  PTCLDY    51  28  41 N3        30.40S
SPIRIT OF STL  CLEAR     44  34  67 CALM      30.40R
ST CHARLES     CLEAR     47  32  56 N3        30.40R

$$
MOZ072>076-082>087-097>100-106>115-200300-
...SOUTH CENTRAL AND SOUTHEAST MISSOURI...

CITY           SKY/WX    TMP DP  RH WIND       PRES   REMARKS
CAPE GIRARDEAU FAIR      47  33  58 N5        30.39R
FARMINGTON     CLEAR     43  31  62 CALM      30.40S
POPLAR BLUFF   FAIR      47  37  68 NE6       30.39R
WEST PLAINS    CLEAR     48  29  47 N5        30.36R

$$




USA.gov is the U.S. government's official web portal to all federal, state and local government web resources and services.